KE4OGG Weather Reports


Display with metric or nautical units.
time (UTC)temp
F
wind
direction
speed
MPH
gust
MPH
rain 1hr
in
rain 24hr
in
rain mn
in
humidity
%
barometer
mb
20260505051023 55 0 0.0 0.0 0.00 0.00 0.00 54 1016.1
20260505050523 55 0 0.0 0.0 0.00 0.00 0.00 53 1016.1
20260505041543 58 0 0.0 0.0 0.00 0.00 0.00 49 1016.1
20260505041023 58 0 0.0 0.0 0.00 0.00 0.00 49 1016.1
20260505040523 58 0 0.0 0.0 0.00 0.00 0.00 49 1016.1
20260505040040 58 0 0.0 0.0 0.00 0.00 0.00 49 1016.1
20260505035523 58 0 0.0 0.0 0.00 0.00 0.00 49 1016.1
20260505035020 58 0 0.0 0.0 0.00 0.00 0.00 50 1016.1
20260505034537 59 0 0.0 0.0 0.00 0.00 0.00 49 1016.1
20260505034025 59 0 0.0 0.0 0.00 0.00 0.00 49 1016.1
20260505033526 59 0 0.0 0.0 0.00 0.00 0.00 48 1016.1
20260505033033 59 0 0.0 0.0 0.00 0.00 0.00 48 1016.2
20260505032524 60 0 0.0 0.0 0.00 0.00 0.00 47 1016.2
20260505032023 60 0 0.0 2.0 0.00 0.00 0.00 47 1016.2
20260505031540 60 0 0.0 2.0 0.00 0.00 0.00 47 1016.0
20260505031023 60 105 1.0 2.0 0.00 0.00 0.00 49 1016.1
20260505030524 60 0 0.0 0.0 0.00 0.00 0.00 48 1016.0
20260505030039 60 0 0.0 0.0 0.00 0.00 0.00 48 1016.1
20260505025524 61 0 0.0 0.0 0.00 0.00 0.00 47 1016.1
20260505025023 61 0 0.0 0.0 0.00 0.00 0.00 47 1016.1
20260505024545 61 0 0.0 0.0 0.00 0.00 0.00 46 1016.1
20260505024023 62 0 0.0 0.0 0.00 0.00 0.00 45 1016.1
20260505023523 62 0 0.0 0.0 0.00 0.00 0.00 45 1016.1
20260505023038 62 0 0.0 0.0 0.00 0.00 0.00 45 1016.1
20260505022523 62 0 0.0 0.0 0.00 0.00 0.00 44 1015.9
20260505022023 63 0 0.0 0.0 0.00 0.00 0.00 44 1015.9
20260505021536 63 0 0.0 0.0 0.00 0.00 0.00 44 1015.9
20260505021023 63 0 0.0 0.0 0.00 0.00 0.00 44 1015.8
20260505020524 63 0 0.0 0.0 0.00 0.00 0.00 43 1015.8
20260505020036 64 0 0.0 0.0 0.00 0.00 0.00 43 1015.8
20260505015524 64 0 0.0 0.0 0.00 0.00 0.00 42 1015.8
20260505015024 65 0 0.0 0.0 0.00 0.00 0.00 41 1015.6
20260505014540 65 0 0.0 0.0 0.00 0.00 0.00 40 1015.6
20260505014026 65 0 0.0 1.0 0.00 0.00 0.00 40 1015.6
20260505013523 65 0 0.0 1.0 0.00 0.00 0.00 40 1015.6
20260505013040 65 0 0.0 1.0 0.00 0.00 0.00 40 1015.6
20260505012524 65 0 0.0 1.0 0.00 0.00 0.00 40 1015.6
20260505012025 65 131 1.0 1.0 0.00 0.00 0.00 40 1015.5
20260505011538 65 0 0.0 0.0 0.00 0.00 0.00 40 1015.4
20260505011024 65 155 0.0 0.0 0.00 0.00 0.00 40 1015.3
20260505010524 66 155 0.0 0.0 0.00 0.00 0.00 40 1015.3
20260505010038 66 0 0.0 0.0 0.00 0.00 0.00 39 1015.3
20260505005524 66 155 0.0 0.0 0.00 0.00 0.00 40 1015.2
20260505005024 67 0 0.0 0.0 0.00 0.00 0.00 39 1015.2
20260505004541 67 0 0.0 0.0 0.00 0.00 0.00 37 1015.2
20260505004023 67 0 0.0 0.0 0.00 0.00 0.00 37 1015.1
20260505003523 68 0 0.0 0.0 0.00 0.00 0.00 37 1015.1
20260505003038 68 0 0.0 0.0 0.00 0.00 0.00 36 1015.1
20260505002525 69 185 0.0 1.0 0.00 0.00 0.00 36 1015.1
20260505002024 69 185 0.0 1.0 0.00 0.00 0.00 35 1015.0
20260505001538 69 185 0.0 1.0 0.00 0.00 0.00 34 1015.1
20260505001024 70 0 0.0 1.0 0.00 0.00 0.00 33 1015.0
20260505000524 70 0 0.0 0.0 0.00 0.00 0.00 34 1015.1
20260505000045 71 0 0.0 0.0 0.00 0.00 0.00 32 1015.0
20260504235524 71 204 0.0 1.0 0.00 0.00 0.00 32 1015.0
20260504235028 72 0 0.0 1.0 0.00 0.00 0.00 31 1015.0
20260504234537 72 0 0.0 1.0 0.00 0.00 0.00 30 1014.9
20260504234025 73 0 0.0 0.0 0.00 0.00 0.00 30 1014.9
20260504233522 73 0 0.0 0.0 0.00 0.00 0.00 30 1014.9
20260504233101 73 0 0.0 1.0 0.00 0.00 0.00 31 1014.8
20260504232526 73 0 0.0 1.0 0.00 0.00 0.00 30 1014.8
20260504232025 73 0 0.0 1.0 0.00 0.00 0.00 29 1014.8
20260504231544 74 250 0.0 1.0 0.00 0.00 0.00 28 1014.7
20260504231025 74 0 0.0 1.0 0.00 0.00 0.00 28 1014.7
20260504230526 74 250 0.0 1.0 0.00 0.00 0.00 28 1014.7
20260504230050 74 0 0.0 3.0 0.00 0.00 0.00 27 1014.7
20260504225526 75 0 0.0 3.0 0.00 0.00 0.00 26 1014.6
20260504225025 75 189 0.0 3.0 0.00 0.00 0.00 25 1014.6
20260504224537 76 248 0.0 2.0 0.00 0.00 0.00 24 1014.6
20260504224023 76 245 0.0 3.0 0.00 0.00 0.00 24 1014.6
20260504223524 76 148 0.0 3.0 0.00 0.00 0.00 25 1014.6
20260504223038 77 114 0.0 3.0 0.00 0.00 0.00 25 1014.6
20260504222523 77 110 0.0 3.0 0.00 0.00 0.00 24 1014.8
20260504222024 78 182 0.0 4.0 0.00 0.00 0.00 23 1014.6
20260504221536 78 194 0.0 4.0 0.00 0.00 0.00 22 1014.6
20260504221022 78 187 1.0 6.0 0.00 0.00 0.00 22 1014.7
20260504220523 78 185 1.0 6.0 0.00 0.00 0.00 24 1014.6
20260504220042 79 104 1.0 6.0 0.00 0.00 0.00 23 1014.7
20260504215522 78 0 0.0 3.0 0.00 0.00 0.00 22 1014.6
20260504215021 77 118 0.0 3.0 0.00 0.00 0.00 23 1014.7
20260504214538 77 262 0.0 4.0 0.00 0.00 0.00 22 1014.7
20260504214027 77 267 0.0 4.0 0.00 0.00 0.00 22 1014.6
20260504213521 78 207 0.0 3.0 0.00 0.00 0.00 22 1014.7
20260504213038 78 181 0.0 3.0 0.00 0.00 0.00 21 1014.7
20260504212524 77 260 0.0 2.0 0.00 0.00 0.00 22 1014.6
20260504212022 77 261 0.0 4.0 0.00 0.00 0.00 21 1014.8
20260504211539 78 147 0.0 4.0 0.00 0.00 0.00 21 1014.7
20260504211022 77 128 0.0 3.0 0.00 0.00 0.00 22 1014.8
20260504210524 77 124 0.0 3.0 0.00 0.00 0.00 22 1014.8
20260504210042 77 168 0.0 4.0 0.00 0.00 0.00 22 1014.8
20260504205522 77 264 1.0 9.0 0.00 0.00 0.00 22 1014.8
20260504205022 77 131 0.0 10.0 0.00 0.00 0.00 23 1014.9
20260504204547 76 128 2.0 10.0 0.00 0.00 0.00 23 1015.0
20260504204027 76 97 3.0 10.0 0.00 0.00 0.00 23 1014.9
20260504203523 77 155 5.0 8.0 0.00 0.00 0.00 23 1015.1
20260504203053 77 125 1.0 12.0 0.00 0.00 0.00 24 1015.1
20260504202523 76 94 5.0 12.0 0.00 0.00 0.00 22 1015.1
20260504202024 78 178 1.0 12.0 0.00 0.00 0.00 22 1015.0
20260504201538 76 131 2.0 12.0 0.00 0.00 0.00 24 1015.0
20260504201025 78 122 4.0 11.0 0.00 0.00 0.00 21 1014.9
20260504200523 78 128 3.0 12.0 0.00 0.00 0.00 23 1015.1
20260504200038 78 151 3.0 12.0 0.00 0.00 0.00 23 1015.1
20260504195523 78 139 2.0 11.0 0.00 0.00 0.00 24 1015.1
20260504195023 79 88 1.0 11.0 0.00 0.00 0.00 21 1015.1
20260504194537 80 87 2.0 11.0 0.00 0.00 0.00 19 1015.2
20260504194020 81 149 1.0 3.0 0.00 0.00 0.00 18 1015.3
20260504193523 80 285 1.0 3.0 0.00 0.00 0.00 20 1015.3
20260504193035 80 283 1.0 3.0 0.00 0.00 0.00 19 1015.3
20260504192522 81 0 0.0 2.0 0.00 0.00 0.00 20 1015.4
20260504192023 81 122 0.0 2.0 0.00 0.00 0.00 18 1015.5
20260504191541 80 262 0.0 5.0 0.00 0.00 0.00 20 1015.6
20260504191024 79 107 1.0 5.0 0.00 0.00 0.00 19 1015.5
20260504190524 78 0 1.0 5.0 0.00 0.00 0.00 22 1015.6
20260504190054 77 289 2.0 5.0 0.00 0.00 0.00 22 1015.7
20260504185527 77 285 1.0 10.0 0.00 0.00 0.00 23 1015.8
20260504185024 76 252 2.0 10.0 0.00 0.00 0.00 25 1015.8
20260504184538 76 118 4.0 10.0 0.00 0.00 0.00 22 1015.9
20260504184024 77 109 3.0 10.0 0.00 0.00 0.00 22 1016.0
20260504183524 77 115 3.0 8.0 0.00 0.00 0.00 22 1016.1
20260504183038 77 223 0.0 6.0 0.00 0.00 0.00 22 1016.1
20260504182531 76 6 1.0 8.0 0.00 0.00 0.00 26 1016.2
20260504182026 75 233 5.0 9.0 0.00 0.00 0.00 23 1016.2
20260504181543 76 165 2.0 10.0 0.00 0.00 0.00 24 1016.4
20260504181024 76 101 4.0 10.0 0.00 0.00 0.00 23 1016.3
20260504180527 77 118 1.0 7.0 0.00 0.00 0.00 25 1016.4
20260504180041 77 73 1.0 7.0 0.00 0.00 0.00 23 1016.5
20260504175523 76 275 0.0 7.0 0.00 0.00 0.00 23 1016.5
20260504175024 76 106 4.0 7.0 0.00 0.00 0.00 21 1016.6
20260504174540 78 260 1.0 3.0 0.00 0.00 0.00 22 1016.7
20260504174026 77 132 0.0 6.0 0.00 0.00 0.00 24 1016.8
20260504173524 76 167 1.0 7.0 0.00 0.00 0.00 25 1016.8
20260504173038 74 120 2.0 7.0 0.00 0.00 0.00 27 1016.9
20260504172523 75 89 3.0 7.0 0.00 0.00 0.00 26 1017.0
20260504172025 75 120 2.0 6.0 0.00 0.00 0.00 25 1016.8
20260504171538 76 111 2.0 6.0 0.00 0.00 0.00 23 1017.0
20260504171025 76 290 1.0 4.0 0.00 0.00 0.00 21 1017.0
20260504170524 77 109 0.0 4.0 0.00 0.00 0.00 19 1016.9
20260504151023 68 296 1.0 4.0 0.00 0.00 0.00 27 1018.3
20260504150529 69 290 0.0 3.0 0.00 0.00 0.00 28 1018.3
20260504141023 65 292 3.0 6.0 0.00 0.00 0.00 34 1018.3
20260504140525 65 326 0.0 5.0 0.00 0.00 0.00 38 1018.3
20260504130525 57 284 2.0 4.0 0.00 0.00 0.00 45 1018.3
20260504110522 43 0 0.0 0.0 0.00 0.00 0.00 64 1018.0
20260504100521 44 0 0.0 0.0 0.00 0.00 0.00 61 1017.5
20260504081537 48 0 0.0 0.0 0.00 0.00 0.00 55 1017.5
20260504081025 48 0 0.0 0.0 0.00 0.00 0.00 55 1017.3
20260504080525 48 0 0.0 0.0 0.00 0.00 0.00 55 1017.3